Cloud_Cover
72 100 90 91 1 1 4 100 100 100 100 100 100 100 100 93 95 94 100 100 100 100 100 71 68 93 93 100 100 70 100 100 100 100 64 96 100 100 100 100 100 100 100 99
100 100 100 100 80 0 5 78 100 100 100 94 100 100 99 44 87 100 100 100 100 100 100 100 100 100 100 100 100 95 99 100 100 100 100 100 100 100 100 100 86 38 54 32
100 100 100 100 94 2 5 5 100 100 100 98 97 100 100 83 94 98 100 100 100 100 100 100 100 100 100 100 100 100 100 100 100 100 100 100 100 100 100 100 70 5 2 0
100 100 100 95 90 2 5 5 85 100 100 100 100 76 100 87 47 41 92 76 95 100 100 100 100 100 100 100 100 100 100 100 100 100 100 86 34 46 5 62 98 100 94 26
74 98 100 100 22 5 3 96 100 37 100 100 100 31 100 100 71 82 100 14 64 100 100 100 100 100 100 100 100 100 100 97 91 17 64 99 90 27 5 5 5 59 44 5
100 100 96 63 5 55 25 97 100 13 17 98 100 32 99 97 91 100 52 96 34 47 87 100 100 100 100 100 100 100 100 100 100 99 40 10 5 37 90 60 5 5 5 5
99 96 86 5 28 98 98 84 93 100 78 8 66 99 100 100 80 100 100 84 27 18 6 87 100 100 100 100 100 100 100 100 100 100 100 98 100 100 26 20 18 5 5 5
82 100 97 42 64 100 100 95 29 15 68 5 4 4 100 100 100 81 100 100 97 8 20 55 55 96 100 100 100 100 100 100 100 100 100 100 100 72 77 96 33 5 5 5
98 100 100 100 100 100 100 90 88 100 62 54 5 0 0 96 100 100 100 100 100 76 95 63 66 46 73 99 97 99 100 100 100 100 100 96 100 100 100 100 82 21 18 66
98 99 100 100 100 100 100 100 100 74 67 100 14 3 0 11 100 100 100 100 100 100 100 98 71 30 50 44 65 88 97 100 96 100 98 94 98 96 93 94 49 34 64 24
51 48 100 100 100 100 100 100 100 99 28 60 100 49 16 11 100 100 100 100 100 100 100 96 64 88 60 88 100 96 97 99 83 100 100 100 99 96 49 8 7 84 53 23
50 64 99 100 100 100 100 100 100 99 98 99 100 100 100 100 100 100 100 100 100 100 100 100 100 100 98 95 97 100 100 100 100 100 94 99 98 28 7 33 51 98 86 61
60 82 100 100 100 100 100 100 100 100 100 100 100 100 100 100 100 100 100 100 100 100 100 100 100 100 100 100 100 100 100 100 100 100 100 97 42 95 31 75 100 100 41 5
100 100 58 95 100 87 97 100 100 100 100 100 100 100 100 100 100 100 100 100 100 100 100 100 100 100 100 100 100 100 100 100 100 100 100 100 100 100 100 100 54 5 5 5
48 38 96 73 70 90 100 100 100 100 100 100 100 100 100 100 100 100 100 100 100 100 100 100 100 100 98 74 94 100 100 100 100 100 100 100 100 99 96 100 94 65 30 14
5 5 5 28 84 100 96 100 100 100 100 100 100 100 100 100 100 100 100 100 100 100 100 100 100 100 100 100 100 100 100 100 100 100 100 100 100 100 100 100 100 100 100 100
97 62 23 80 72 61 100 81 32 100 100 100 100 100 100 100 100 100 100 100 100 100 100 100 100 100 100 100 100 100 100 100 100 100 100 100 100 100 97 100 100 100 100 100
14 67 72 95 83 63 100 65 5 75 85 92 89 100 100 100 100 96 100 100 100 100 100 100 100 100 100 100 100 100 100 100 100 100 98 99 93 100 100 100 100 100 100 100
71 73 100 18 78 31 71 37 69 100 100 100 96 70 70 90 99 58 100 100 100 100 88 100 100 100 100 100 100 100 100 100 100 100 100 100 100 100 100 100 100 100 100 100
77 100 67 100 100 27 96 9 100 100 100 100 100 100 100 100 99 100 100 100 100 100 100 100 100 100 100 100 100 100 100 100 100 100 100 100 100 100 100 100 100 100 100 100
88 94 82 100 100 37 50 34 100 100 94 66 100 100 100 100 100 100 100 100 100 100 100 100 100 100 100 100 100 100 100 100 100 100 98 100 100 100 100 100 100 78 36 71
67 77 99 100 94 64 44 25 99 100 100 100 100 98 100 100 100 100 100 100 100 100 100 100 100 100 100 100 100 100 100 100 100 100 100 100 83 93 100 80 76 20 9 5
6 31 81 98 100 25 55 6 17 82 100 100 100 100 100 100 100 100 100 100 100 100 100 100 100 100 100 100 100 89 100 100 100 100 52 14 8 5 48 99 67 6 4 0
70 27 12 50 100 78 86 88 22 11 10 91 100 100 100 100 100 100 100 100 100 100 100 100 100 100 100 100 100 100 100 58 20 5 3 0 0 3 5 6 44 49 5 1
93 69 87 90 22 97 100 100 69 80 15 6 8 25 97 100 100 100 100 100 100 100 100 100 100 100 100 100 100 100 100 82 71 5 1 0 0 0 5 5 6 23 16 9
99 77 53 13 80 99 63 88 100 98 93 89 18 33 40 66 100 100 100 100 97 100 100 100 100 100 100 100 100 100 100 100 100 31 3 0 0 0 5 5 16 54 84 87